Regional Weather Roundup
Issued by NWS

Home | Current Version | Previous Version | Graphics & Text | Print | Product List | Glossary On
Versions: 1 2 3 4 5 6 7 8 9 10 11 12 13 14 15 16 17 18 19 20 21 22 23 24 25 26 27 28 29 30 31 32 33 34 35 36 37 38 39 40 41 42 43 44 45 46 47 48 49 50
000
ASUS43 KMPX 231510
RWRMN
WEATHER ROUNDUP FOR MINNESOTA
NATIONAL WEATHER SERVICE TWIN CITIES/CHANHASSEN MN
1000 AM CDT MON OCT 23 2017


NOTE: "FAIR" INDICATES FEW OR NO CLOUDS BELOW 12,000 FEET WITH NO
SIGNIFICANT WEATHER AND/OR OBSTRUCTIONS TO VISIBILITY. N/A MEANS
CURRENT SKY AND/OR WEATHER CONDITIONS ARE NOT AVAILABLE.

MNZ060>063-068>070-231600-
   Twin Cities Metro

CITY           SKY/WX    TMP DP  RH WIND       PRES   REMARKS
TWIN CITIES    MOSUNNY   57  43  59 NW18G25   29.76S
ST PAUL        MOSUNNY   56  42  59 MISG      29.77S
CRYSTAL        MOSUNNY   56  40  55 MISG      29.75S
BLAINE         MOSUNNY   57  43  58 W14       29.75S
LAKEVILLE      SUNNY     54  43  66 W14G21    29.78R
EDEN PRAIRIE   MOSUNNY   57  42  57 W17G24    29.76R
SOUTH ST PAUL  MOSUNNY   56  40  55 W6        29.76R
LAKE ELMO      FAIR      55  41  58 W5        29.78R
$$
MNZ001>005-007-008-013>017-022>024-027-028-231600-
   Northwest Minnesota

CITY           SKY/WX    TMP DP  RH WIND       PRES   REMARKS
BEMIDJI        CLOUDY    45  39  81 W15       29.73R
HALLOCK        CLOUDY    43  36  75 NW23G30   29.84R
ROSEAU         CLOUDY    46  41  81 NW24G31   29.74R
WARROAD        CLOUDY    46  39  76 NW17G25   29.72R
THIEF RVR FALL LGT RAIN  43  40  89 NW26G33   29.80R
CROOKSTON      DRIZZLE   46  39  76 NW20G33   29.84R
FOSSTON        CLOUDY    43  39  87 NW15G22   29.78R
DETROIT LAKES  CLOUDY    45  39  81 NW18      29.81R
MOORHEAD       CLOUDY    46  39  76 NW23      29.85R
PARK RAPIDS    LGT RAIN  46  40  79 NW16G23   29.75R
MAHNOMEN       CLOUDY    45  39  80 NW25G33   29.79R
$$
MNZ006-009>011-018-025>026-231600-
   North Central Minnesota

CITY           SKY/WX    TMP DP  RH WIND       PRES   REMARKS
BAUDETTE       CLOUDY    47  44  90 NW13      29.66R
FLAG ISLAND    CLOUDY    48  39  71 N23       29.69R
INTL FALLS     CLOUDY    50  47  89 W8        29.63R
WASKISH        CLOUDY    46  43  87 W13G20    29.69R
BIG FORK       MOSUNNY   52  43  71 W9        29.67R
LONGVILLE      MOSUNNY   52  41  66 W13       29.72R
GRAND RAPIDS   SUNNY     53  42  66 W8        29.70S
CRANE LAKE     PTSUNNY   46  45  93 S3        29.65S
ORR            SUNNY     52  41  66 SW6       29.63R
COOK           SUNNY     52  41  66 SW7       29.66R
WALKER         PTSUNNY   47  38  72 W15G28    29.73R
$$
MNZ012-019>021-037-231600-
   Northeast Minnesota

CITY           SKY/WX    TMP DP  RH WIND       PRES   REMARKS
DULUTH         MOSUNNY   54  39  57 W12       29.66F
ELY            MOSUNNY   48  43  81 S6        29.65F
HIBBING        SUNNY     53  39  59 VRB7      29.67R
EVELETH        SUNNY     53  33  47 W9        29.67S
DULUTH HARBOR  SUNNY     55  39  54 SW13      29.68F
TWO HARBORS    SUNNY     57  45  62 S8        29.65F
SILVER BAY     SUNNY     54  43  66 S5        29.66S
G MARAIS ARPRT DRIZZLE   46  39  76 CALM      29.71S
$$
MNZ029>031-032-039>041-046>048-054>057-064-231600-
   West Central Minnesota

CITY           SKY/WX    TMP DP  RH WIND       PRES   REMARKS
FERGUS FALLS   CLOUDY    46  37  71 NW22G30   29.84R
WHEATON        PTSUNNY   48  36  61 W25G32    29.88R
MORRIS         SUNNY     52  36  54 NW28G37   29.83R
ALEXANDRIA     SUNNY     50  37  61 NW24G36   29.81R
ELBOW LAKE     CLOUDY    46  38  72 NW21G32   29.84R
WADENA         PTSUNNY   46  37  71 NW17G25   29.78R
GLENWOOD       MOSUNNY   50  37  62 W24G35    29.81R
APPLETON       MOSUNNY   54  36  50 NW24G35   29.85S
BENSON         SUNNY     54  36  50 NW28G36   29.85R
ORTONVILLE     MOSUNNY   52  36  54 NW24G33   29.87R
MADISON        SUNNY     55  37  50 NW26G39   29.87F
WILLMAR        FAIR      54  39  58 W18G32    29.83S
$$
MNZ033>034-036-042>043-049>051-058-059-231600-
   Central Minnesota

CITY           SKY/WX    TMP DP  RH WIND       PRES   REMARKS
ST CLOUD       MOSUNNY   53  41  63 NW16      29.75F
SAUK CENTRE    FAIR      51  37  60 W22G29    29.78R
PAYNESVILLE    MOSUNNY   54  39  58 W16G24    29.79S
AITKIN         SUNNY     52  39  62 W12G22    29.70R
PINE RIVER     SUNNY     48  37  66 W10G25    29.77S
BRAINERD       SUNNY     53  40  61 W16G23    29.74R
STAPLES        MOSUNNY   48  36  61 W22G30    29.76S
LONG PRAIRIE   FAIR      50  37  62 W17G26    29.77S HAZE
LITTLE FALLS   SUNNY     52  32  46 W17G29    29.75S
LITCHFIELD     MOSUNNY   54  43  66 W14G25    29.79F
BUFFALO        MOSUNNY   55  40  56 W15G23    29.77F
MAPLE LAKE     MOSUNNY   56  43  62 W13G26    29.77F
HUTCHINSON     CLOUDY    53  42  66 W15G22    29.80F
$$
MNZ037-044-045-052-053-231600-
   East Central Minnesota

CITY           SKY/WX    TMP DP  RH WIND       PRES   REMARKS
PRINCETON      MOSUNNY   57  45  62 W13G21    29.74S
MORA           MOSUNNY   54  41  62 NW12G18   29.72F
CAMBRIDGE      MOSUNNY   57  43  58 W14G21    29.73S
RUSH CITY      SUNNY     55  41  60 W9G16     29.72S
MOOSE LAKE     SUNNY     55  39  54 W9        29.67F
HINCKLEY       FAIR      54  41  62 W10G16    29.71S
CLOQUET        SUNNY     55  37  50 W8        29.67F
MCGREGOR       SUNNY     54  43  66 W10       29.71R
$$
MNZ071>073-080-081-089-090-097-098-231600-
   Southwest Minnesota

CITY           SKY/WX    TMP DP  RH WIND       PRES   REMARKS
MONTEVIDEO     SUNNY     55  37  50 N20G26    29.85S
GRANITE FALLS  SUNNY     55  39  55 W28G35    29.87F
CANBY          SUNNY     54  37  52 W21G29    29.91R
MARSHALL       SUNNY     53  36  52 NW28G37   29.87S
REDWOOD FALLS  MOSUNNY   54  37  52 NW18G28   29.84R
OLIVIA         MOSUNNY   54  39  58 NW21G33   29.82S
PIPESTONE      SUNNY     52  36  54 NW18G28   29.92R
WORTHINGTON    SUNNY     51  38  60 NW18G25   29.91R
JACKSON        PTSUNNY   54  37  54 NW15G25   29.89R
TRACY          SUNNY     54  39  57 NW23G30   29.89R
SLAYTON        MOSUNNY   52  37  56 NW25      29.90S
$$
MNZ065>067-074>077-082>085-091>093-231600-
   South Central Minnesota

CITY           SKY/WX    TMP DP  RH WIND       PRES   REMARKS
MANKATO        PTSUNNY   54  41  61 NW17G24   29.82S
NEW ULM          N/A     54  39  58 W17G23    29.83S
ST JAMES       CLOUDY    54  39  58 W18G24    29.87R
FAIRMONT       CLOUDY    55  40  56 NW18      29.86S
GLENCOE        PTSUNNY   55  41  60 W12G25    29.79S
FARIBAULT      MOSUNNY   54  43  66 W13G18    29.80F
OWATONNA       CLOUDY    52  43  71 W12       29.80F
WASECA         CLOUDY    52  41  66 W9        29.82F
$$
MNZ078>079-086>088-094>096-231600-
   Southeast Minnesota

CITY           SKY/WX    TMP DP  RH WIND       PRES   REMARKS
ROCHESTER      CLOUDY    50  40  68 W12       29.81F
RED WING       CLOUDY    52  36  54 W5        29.78S
STANTON        MOSUNNY   55  42  62 W8        29.78R
DODGE CENTER   CLOUDY    48  37  66 W12G20    29.80F
WINONA         MOSUNNY   52  41  66 W3        29.79F
AUSTIN         PTSUNNY   48  39  71 CALM      29.81S
PRESTON        CLOUDY    48  37  65 W8        29.80F
$$
ABBREVIATIONS USED IN REMARKS
   TC - TEMPERATURES IN CELSIUS
  WCI - WIND CHILL INDEX
   HX - HEAT INDEX
  VSB - VISIBILITY
$$



USA.gov is the U.S. government's official web portal to all federal, state and local government web resources and services.